2018-004AB (43136 NORAD) Tracking and Keplerian Element Data

This shows tracking and keplerian element data for the satellite.

Feedback or suggestion? Click here.




ElementValue
Catalog43136
Name2018-004AB
Epoch Orbit20609
Epoch Day269.11111771
Epoch Year2021
RAAN343.9953
Inclination97.4045
Eccentricity0.0007878
Argument of Perigee201.0313
Mean Anonmoly159.0603
Mean Motion15.27539591
Decay Rate5.511E-05
L11 43136U 18004AB 21269.11111771 .00005511 00000-0 20720-3 0 9996
L22 43136 97.4045 343.9953 0007878 201.0313 159.0603 15.27539591206092

Live tracking and technical data element details for 2018-004AB (NORAD 43136). 2018-004AB can be tracked NOW for your location showing map with azimuth and elevation plus other details from your city location.

Track the satellite on the map from your city or location and see movement details for azimuth, elevation, latitude, longitude, range, height, and movement on the map or in text.







IsCatalogInMostPopularTable: catalog: 43136, numindb: 602
Update: records affected: 1



GetName: 43136 2018-004AB

Hit Count: updated at: Mon, 27 Sep 2021 00:07:08 GMT